Time,TemperatureF,DewpointF,PressureIn,WindDirection,WindDirectionDegrees,WindSpeedMPH,WindSpeedGustMPH,Humidity,HourlyPrecipIn,Conditions,Clouds,dailyrainin,SoftwareType,DateUTC
2013-07-09 00:04:00,72.7,71.0,30.08,SW,225,0.0,0.0,96,0.00,,,0.00,weatherlink.com 1.10,2013-07-09 05:04:00,
2013-07-09 00:20:00,72.1,71.0,30.08,SW,225,0.0,0.0,96,0.00,,,0.00,weatherlink.com 1.10,2013-07-09 05:20:00,
2013-07-09 00:37:00,72.2,71.0,30.08,SW,225,0.0,0.0,96,0.00,,,0.00,weatherlink.com 1.10,2013-07-09 05:37:00,
2013-07-09 00:53:00,72.2,71.0,30.08,SW,225,0.0,0.0,96,0.00,,,0.00,weatherlink.com 1.10,2013-07-09 05:53:00,
2013-07-09 01:10:00,72.2,71.0,30.07,SW,225,0.0,0.0,96,0.00,,,0.00,weatherlink.com 1.10,2013-07-09 06:10:00,
2013-07-09 01:26:00,71.8,71.0,30.07,SW,225,0.0,0.0,96,0.00,,,0.00,weatherlink.com 1.10,2013-07-09 06:26:00,
2013-07-09 01:43:00,71.3,70.0,30.07,SW,224,0.0,0.0,97,0.00,,,0.00,weatherlink.com 1.10,2013-07-09 06:43:00,
2013-07-09 01:59:00,71.4,71.0,30.07,SW,224,0.0,0.0,97,0.00,,,0.00,weatherlink.com 1.10,2013-07-09 06:59:00,
2013-07-09 02:15:00,71.2,70.0,30.07,SW,224,0.0,0.0,97,0.00,,,0.00,weatherlink.com 1.10,2013-07-09 07:15:00,
2013-07-09 02:31:00,71.0,70.0,30.07,SW,225,0.0,0.0,97,0.00,,,0.00,weatherlink.com 1.10,2013-07-09 07:31:00,
2013-07-09 03:05:00,70.7,70.0,30.07,SW,225,0.0,0.0,97,0.00,,,0.00,weatherlink.com 1.10,2013-07-09 08:05:00,
2013-07-09 03:21:00,70.6,70.0,30.07,SW,225,0.0,0.0,97,0.00,,,0.00,weatherlink.com 1.10,2013-07-09 08:21:00,
2013-07-09 03:39:00,70.5,70.0,30.07,SW,225,0.0,0.0,97,0.00,,,0.00,weatherlink.com 1.10,2013-07-09 08:39:00,
2013-07-09 03:55:00,70.3,69.0,30.08,SW,225,0.0,0.0,97,0.00,,,0.00,weatherlink.com 1.10,2013-07-09 08:55:00,
2013-07-09 04:11:00,70.3,69.0,30.08,SW,225,0.0,0.0,97,0.00,,,0.00,weatherlink.com 1.10,2013-07-09 09:11:00,
2013-07-09 04:27:00,70.1,69.0,30.08,SW,225,0.0,0.0,97,0.00,,,0.00,weatherlink.com 1.10,2013-07-09 09:27:00,
2013-07-09 04:44:00,69.9,69.0,30.08,SW,225,0.0,0.0,97,0.00,,,0.00,weatherlink.com 1.10,2013-07-09 09:44:00,
2013-07-09 05:01:00,69.9,69.0,30.08,SW,225,0.0,0.0,98,0.00,,,0.00,weatherlink.com 1.10,2013-07-09 10:01:00,
2013-07-09 05:17:00,69.6,69.0,30.09,SW,225,0.0,0.0,98,0.00,,,0.00,weatherlink.com 1.10,2013-07-09 10:17:00,
2013-07-09 05:35:00,69.6,69.0,30.09,SW,225,0.0,0.0,98,0.00,,,0.00,weatherlink.com 1.10,2013-07-09 10:35:00,
2013-07-09 05:51:00,69.5,69.0,30.09,SW,225,0.0,0.0,98,0.00,,,0.00,weatherlink.com 1.10,2013-07-09 10:51:00,
2013-07-09 06:07:00,69.8,69.0,30.09,SW,225,0.0,0.0,98,0.00,,,0.00,weatherlink.com 1.10,2013-07-09 11:07:00,
2013-07-09 06:23:00,69.9,69.0,30.09,SW,225,0.0,0.0,98,0.00,,,0.00,weatherlink.com 1.10,2013-07-09 11:23:00,
2013-07-09 06:40:00,70.4,70.0,30.09,SW,225,0.0,0.0,98,0.00,,,0.00,weatherlink.com 1.10,2013-07-09 11:40:00,
2013-07-09 06:56:00,70.9,70.0,30.09,SW,224,0.0,0.0,98,0.00,,,0.00,weatherlink.com 1.10,2013-07-09 11:56:00,
2013-07-09 07:12:00,71.7,71.0,30.09,SW,224,0.0,0.0,98,0.00,,,0.00,weatherlink.com 1.10,2013-07-09 12:12:00,
2013-07-09 07:28:00,72.4,72.0,30.08,SW,217,0.0,1.0,98,0.00,,,0.00,weatherlink.com 1.10,2013-07-09 12:28:00,
2013-07-09 07:46:00,73.5,73.0,30.08,SSW,210,0.0,2.0,97,0.00,,,0.00,weatherlink.com 1.10,2013-07-09 12:46:00,
2013-07-09 08:02:00,75.6,73.0,30.09,WSW,237,1.0,4.0,93,0.00,,,0.00,weatherlink.com 1.10,2013-07-09 13:02:00,
2013-07-09 08:18:00,77.5,75.0,30.08,SW,217,3.0,5.0,91,0.00,,,0.00,weatherlink.com 1.10,2013-07-09 13:18:00,
2013-07-09 08:36:00,79.4,75.0,30.08,SW,221,4.0,4.0,87,0.00,,,0.00,weatherlink.com 1.10,2013-07-09 13:36:00,
2013-07-09 08:53:00,81.1,76.0,30.09,SW,217,1.0,2.0,84,0.00,,,0.00,weatherlink.com 1.10,2013-07-09 13:53:00,
2013-07-09 09:09:00,83.4,76.0,30.09,SW,222,3.0,5.0,78,0.00,,,0.00,weatherlink.com 1.10,2013-07-09 14:09:00,
2013-07-09 09:25:00,85.5,77.0,30.09,WSW,245,1.0,4.0,75,0.00,,,0.00,weatherlink.com 1.10,2013-07-09 14:25:00,
2013-07-09 09:42:00,86.5,77.0,30.08,West,275,1.0,4.0,73,0.00,,,0.00,weatherlink.com 1.10,2013-07-09 14:42:00,
2013-07-09 09:58:00,86.6,76.0,30.08,NNE,13,0.0,4.0,72,0.00,,,0.00,weatherlink.com 1.10,2013-07-09 14:58:00,
2013-07-09 10:15:00,87.7,76.0,30.08,SW,214,2.0,6.0,68,0.00,,,0.00,weatherlink.com 1.10,2013-07-09 15:15:00,
2013-07-09 10:31:00,88.3,76.0,30.08,WNW,298,1.0,5.0,68,0.00,,,0.00,weatherlink.com 1.10,2013-07-09 15:31:00,
2013-07-09 10:48:00,89.0,77.0,30.08,WSW,245,1.0,4.0,68,0.00,,,0.00,weatherlink.com 1.10,2013-07-09 15:48:00,
2013-07-09 11:04:00,89.6,77.0,30.08,WSW,244,0.0,4.0,66,0.00,,,0.00,weatherlink.com 1.10,2013-07-09 16:04:00,
2013-07-09 11:20:00,90.3,77.0,30.07,SW,219,3.0,7.0,65,0.00,,,0.00,weatherlink.com 1.10,2013-07-09 16:20:00,
2013-07-09 11:38:00,89.5,77.0,30.07,WSW,238,1.0,2.0,66,0.00,,,0.00,weatherlink.com 1.10,2013-07-09 16:38:00,
2013-07-09 11:55:00,90.8,78.0,30.07,SW,219,4.0,6.0,66,0.00,,,0.00,weatherlink.com 1.10,2013-07-09 16:55:00,
2013-07-09 12:11:00,89.7,76.0,30.07,WSW,253,1.0,7.0,65,0.00,,,0.00,weatherlink.com 1.10,2013-07-09 17:11:00,
2013-07-09 12:27:00,89.9,77.0,30.06,SSW,195,0.0,6.0,65,0.00,,,0.00,weatherlink.com 1.10,2013-07-09 17:27:00,
2013-07-09 12:44:00,90.9,77.0,30.06,SW,223,3.0,6.0,63,0.00,,,0.00,weatherlink.com 1.10,2013-07-09 17:44:00,
2013-07-09 13:00:00,90.4,77.0,30.05,SSW,212,0.0,6.0,65,0.00,,,0.00,weatherlink.com 1.10,2013-07-09 18:00:00,
2013-07-09 13:16:00,91.0,75.0,30.05,SW,225,2.0,5.0,60,0.00,,,0.00,weatherlink.com 1.10,2013-07-09 18:16:00,
2013-07-09 13:34:00,90.6,76.0,30.05,SW,214,1.0,5.0,62,0.00,,,0.00,weatherlink.com 1.10,2013-07-09 18:34:00,
2013-07-09 13:50:00,91.2,75.0,30.05,SW,226,0.0,6.0,60,0.00,,,0.00,weatherlink.com 1.10,2013-07-09 18:50:00,
2013-07-09 14:06:00,90.8,74.0,30.04,WSW,240,2.0,5.0,59,0.00,,,0.00,weatherlink.com 1.10,2013-07-09 19:06:00,
2013-07-09 14:22:00,90.3,76.0,30.03,WSW,244,3.0,9.0,62,0.00,,,0.00,weatherlink.com 1.10,2013-07-09 19:22:00,
2013-07-09 14:40:00,92.0,78.0,30.03,WSW,256,0.0,5.0,64,0.00,,,0.00,weatherlink.com 1.10,2013-07-09 19:40:00,
2013-07-09 14:56:00,91.3,75.0,30.03,WSW,248,0.0,3.0,59,0.00,,,0.00,weatherlink.com 1.10,2013-07-09 19:56:00,
2013-07-09 15:12:00,92.2,78.0,30.02,West,264,1.0,3.0,64,0.00,,,0.00,weatherlink.com 1.10,2013-07-09 20:12:00,
2013-07-09 15:28:00,91.1,75.0,30.01,SW,236,1.0,6.0,59,0.00,,,0.00,weatherlink.com 1.10,2013-07-09 20:28:00,
2013-07-09 15:46:00,92.3,76.0,30.00,SW,230,5.0,6.0,59,0.00,,,0.00,weatherlink.com 1.10,2013-07-09 20:46:00,
2013-07-09 16:02:00,91.3,73.0,29.99,SSW,213,3.0,4.0,56,0.00,,,0.00,weatherlink.com 1.10,2013-07-09 21:02:00,
2013-07-09 16:18:00,92.0,75.0,29.99,SW,231,0.0,4.0,58,0.00,,,0.00,weatherlink.com 1.10,2013-07-09 21:18:00,
2013-07-09 16:36:00,92.2,76.0,29.99,SW,223,1.0,4.0,59,0.00,,,0.00,weatherlink.com 1.10,2013-07-09 21:36:00,
2013-07-09 16:52:00,92.0,76.0,29.98,SW,233,0.0,3.0,60,0.00,,,0.00,weatherlink.com 1.10,2013-07-09 21:52:00,
2013-07-09 17:08:00,91.7,75.0,29.98,SSW,202,4.0,6.0,58,0.00,,,0.00,weatherlink.com 1.10,2013-07-09 22:08:00,
2013-07-09 17:24:00,91.5,76.0,29.98,South,187,1.0,6.0,60,0.00,,,0.00,weatherlink.com 1.10,2013-07-09 22:24:00,
2013-07-09 17:43:00,92.4,76.0,29.98,SE,134,1.0,3.0,59,0.00,,,0.00,weatherlink.com 1.10,2013-07-09 22:43:00,
2013-07-09 17:59:00,92.5,76.0,29.97,SW,227,0.0,4.0,59,0.00,,,0.00,weatherlink.com 1.10,2013-07-09 22:59:00,
2013-07-09 18:15:00,90.8,76.0,29.97,WSW,241,0.0,7.0,62,0.00,,,0.00,weatherlink.com 1.10,2013-07-09 23:15:00,
2013-07-09 18:31:00,90.5,76.0,29.97,South,172,0.0,2.0,62,0.00,,,0.00,weatherlink.com 1.10,2013-07-09 23:31:00,
2013-07-09 18:49:00,90.6,76.0,29.97,SW,219,0.0,2.0,63,0.00,,,0.00,weatherlink.com 1.10,2013-07-09 23:49:00,
2013-07-09 19:05:00,90.3,77.0,29.98,SW,223,1.0,2.0,65,0.00,,,0.00,weatherlink.com 1.10,2013-07-10 00:05:00,
2013-07-09 19:21:00,88.0,76.0,29.98,SSE,158,0.0,4.0,68,0.00,,,0.00,weatherlink.com 1.10,2013-07-10 00:21:00,
2013-07-09 19:38:00,86.7,76.0,29.97,SSW,210,0.0,1.0,71,0.00,,,0.00,weatherlink.com 1.10,2013-07-10 00:38:00,
2013-07-09 19:54:00,85.6,76.0,29.97,SW,217,0.0,1.0,73,0.00,,,0.00,weatherlink.com 1.10,2013-07-10 00:54:00,
2013-07-09 20:10:00,84.2,76.0,29.97,SW,214,0.0,0.0,76,0.00,,,0.00,weatherlink.com 1.10,2013-07-10 01:10:00,
2013-07-09 20:26:00,82.8,76.0,29.98,SW,214,0.0,0.0,80,0.00,,,0.00,weatherlink.com 1.10,2013-07-10 01:26:00,
2013-07-09 20:44:00,81.8,76.0,29.98,SW,214,0.0,0.0,82,0.00,,,0.00,weatherlink.com 1.10,2013-07-10 01:44:00,
2013-07-09 21:00:00,81.4,76.0,29.98,SW,219,0.0,0.0,83,0.00,,,0.00,weatherlink.com 1.10,2013-07-10 02:00:00,
2013-07-09 21:16:00,80.8,76.0,29.99,SW,220,0.0,0.0,85,0.00,,,0.00,weatherlink.com 1.10,2013-07-10 02:16:00,
2013-07-09 21:34:00,80.2,76.0,29.99,SW,219,0.0,0.0,86,0.00,,,0.00,weatherlink.com 1.10,2013-07-10 02:34:00,
2013-07-09 21:50:00,79.7,75.0,30.00,SW,219,0.0,0.0,87,0.00,,,0.00,weatherlink.com 1.10,2013-07-10 02:50:00,
2013-07-09 22:06:00,79.9,76.0,29.99,SSW,210,0.0,1.0,87,0.00,,,0.00,weatherlink.com 1.10,2013-07-10 03:06:00,
2013-07-09 22:22:00,79.8,76.0,30.00,SSW,213,0.0,1.0,87,0.00,,,0.00,weatherlink.com 1.10,2013-07-10 03:22:00,
2013-07-09 22:39:00,79.8,76.0,29.99,South,169,0.0,1.0,87,0.00,,,0.00,weatherlink.com 1.10,2013-07-10 03:39:00,
2013-07-09 22:55:00,80.1,76.0,29.99,SW,214,0.0,2.0,86,0.00,,,0.00,weatherlink.com 1.10,2013-07-10 03:55:00,
2013-07-09 23:11:00,80.3,76.0,29.99,SSW,207,0.0,3.0,86,0.00,,,0.00,weatherlink.com 1.10,2013-07-10 04:11:00,
2013-07-09 23:27:00,79.9,76.0,29.99,SSW,207,1.0,2.0,87,0.00,,,0.00,weatherlink.com 1.10,2013-07-10 04:27:00,
2013-07-09 23:45:00,79.4,76.0,29.99,SSW,202,0.0,2.0,88,0.00,,,0.00,weatherlink.com 1.10,2013-07-10 04:45:00,